Printer-friendly version

IAU Minor Planet Center

Minor Planet Center

MPEC 2005-G13 : 2005 GG

The following Minor Planet Electronic Circular may be linked-to from your own Web pages, but must not otherwise be redistributed electronically.


Read MPEC 2005-G12 Read MPEC 2005-G14


M.P.E.C. 2005-G13                                Issued 2005 Apr. 2, 11:52 UT

     The Minor Planet Electronic Circulars contain information on unusual
         minor planets and routine data on comets.  They are published
   on behalf of Commission 20 of the International Astronomical Union by the
          Minor Planet Center, Smithsonian Astrophysical Observatory,
                          Cambridge, MA 02138, U.S.A.

                  Supported in part by the Brinson Foundation
             Prepared using the Tamkin Foundation Computer Network

                              MPC@CFA.HARVARD.EDU
          URL http://cfa-www.harvard.edu/iau/mpc.html  ISSN 1523-6714

                                    2005 GG

Observations:
     K05G00G* C2005 04 01.11944 04 05 02.77 +50 13 35.8          18.2   EG013704
     K05G00G  C2005 04 01.12980 04 05 06.96 +50 14 13.3          18.2   EG013704
     K05G00G  C2005 04 01.14012 04 05 11.21 +50 14 50.8          18.9   EG013704
     K05G00G  C2005 04 01.15048 04 05 15.27 +50 15 28.4          18.6   EG013704
     K05G00G  C2005 04 01.16084 04 05 19.44 +50 16 06.1          18.6   EG013704
     K05G00G  C2005 04 02.10772 04 11 47.49 +51 13 16.8          17.6 R EG013448
     K05G00G  C2005 04 02.11117 04 11 48.92 +51 13 29.0          17.5 R EG013448
     K05G00G  C2005 04 02.11628 04 11 51.03 +51 13 46.9          17.6 R EG013448
     K05G00G 2C2005 04 02.15927 04 12 08.77 +51 16 16.7          17.3 R EG013H06
     K05G00G 2C2005 04 02.16304 04 12 10.37 +51 16 30.0          17.3 R EG013H06
     K05G00G 2C2005 04 02.16678 04 12 11.87 +51 16 43.3          17.4 R EG013H06
     K05G00G  C2005 04 02.21132 04 12 30.56 +51 19 15.0          17.2 R EG013854
     K05G00G  C2005 04 02.21227 04 12 30.89 +51 19 21.1          17.1 R EG013854
     K05G00G  C2005 04 02.21603 04 12 32.85 +51 19 33.0          17.2 R EG013854

Observer details:
448 Desert Moon Observatory.  Observer B. L. Stevens.  0.3-m
    Schmidt-Cassegrain + CCD.
704 Lincoln Laboratory ETS, New Mexico.  Observers M. Blythe, F. Shelly,
    M. Bezpalko, R. Huber, L. Manguso, D. Torres, R. Kracke, M. McCleary,
    H. Stange, A. Milner.  Measurers J. Stuart, R. Sayer, J. Evans, J. Kommers.
    1.0-m f/2.15 reflector + CCD.
854 Sabino Canyon Observatory, Tucson.  Observer J. E. McGaha.  0.36-m f/10.0
    Schmidt-Cassegrain + CCD.
H06 New Mexico Skies Observatory.  Observer R. Hutsebaut.  0.25-m reflector
    + CCD.

Orbital elements:
2005 GG                                                              PHA 0.047D
Epoch 2005 Mar. 31.0 TT = JDT 2453460.5                 MPC
M  67.01653              (2000.0)            P               Q
n   1.11460294     Peri.  315.82756     +0.18226412     -0.95830700
a   0.9212749      Node   122.48233     +0.95887148     +0.12370754
e   0.2361895      Incl.   15.12195     +0.21758968     +0.25757355
P   0.88           H   16.7           G   0.15
From 12 observations 2005 Apr. 1-2.

Ephemeris:
2005 GG                  a,e,i = 0.92, 0.24, 15                  q = 0.7037
Date    TT    R. A. (2000) Decl.     Delta      r     Elong.  Phase     V
2005 03 31    03 57.71   +49 04.2    0.377    0.885    61.7    96.3    17.8
2005 04 10    05 14.95   +57 59.9    0.371    0.928    67.8    90.5    17.6
2005 04 20    06 57.46   +62 31.5    0.376    0.968    73.6    84.5    17.5
2005 04 30    08 42.82   +61 46.4    0.389    1.006    78.7    79.0    17.4
2005 05 10    10 04.24   +57 07.8    0.407    1.040    82.7    74.5    17.4
2005 05 20    11 00.65   +50 35.1    0.429    1.069    85.7    70.7    17.5
2005 05 30    11 40.91   +43 19.4    0.453    1.093    87.6    67.9    17.6
2005 06 09    12 11.99   +35 52.9    0.481    1.112    88.6    65.8    17.7
2005 06 19    12 37.98   +28 31.2    0.510    1.127    88.7    64.4    17.8
2005 06 29    13 01.12   +21 23.2    0.542    1.135    88.0    63.5    17.9
2005 07 09    13 22.78   +14 32.7    0.575    1.139    86.7    63.0    18.0
2005 07 19    13 43.86   +08 02.2    0.608    1.137    84.9    62.9    18.1
2005 07 29    14 04.88   +01 53.2    0.640    1.130    82.7    63.1    18.2
2005 08 08    14 26.28   -03 54.6    0.671    1.117    80.2    63.5    18.3
2005 08 18    14 48.42   -09 21.6    0.699    1.099    77.5    64.1    18.4
2005 08 28    15 11.50   -14 27.8    0.722    1.076    74.7    64.9    18.4
2005 09 07    15 35.83   -19 14.1    0.740    1.048    71.8    66.0    18.5
2005 09 17    16 01.60   -23 40.6    0.750    1.016    69.0    67.5    18.5
2005 09 27    16 28.93   -27 46.7    0.751    0.979    66.1    69.4    18.5
2005 10 07    16 57.91   -31 32.0    0.742    0.939    63.2    71.9    18.4
2005 10 17    17 28.42   -34 55.4    0.721    0.897    60.4    75.2    18.4

Timothy B. Spahr             (C) Copyright 2005 MPC           M.P.E.C. 2005-G13

Read MPEC 2005-G12 Read MPEC 2005-G14


Our Web policy. Index to the CBAT/MPC/ICQ pages.


Valid HTML 4.01!